Regional Weather Roundup
Issued by NWS

Home | Current Version | Previous Version | Graphics & Text | Print | Product List | Glossary On
Versions: 1 2 3 4 5 6 7 8 9 10 11 12 13 14 15 16 17 18 19 20 21 22 23 24 25 26 27 28 29 30 31 32 33 34 35 36 37 38 39 40 41 42 43 44 45 46 47 48 49 50
329
ASUS43 KOAX 191402
RWRNE

WEATHER ROUNDUP FOR NEBRASKA
NATIONAL WEATHER SERVICE OMAHA NE
800 AM CST THU JAN 19 2017

NOTES: SATELLITE DATA IS BEING USED TO AUGMENT CLOUD COVER ABOVE
       12000 FEET.
       "FAIR" INDICATES FEW OR NO CLOUDS BELOW 12,000 FEET WITH NO
       SIGNIFICANT WEATHER AND/OR OBSTRUCTIONS TO VISIBILITY.

  * THESE STATIONS DO NOT REPORT WEATHER SUCH AS RAIN...SNOW OR FOG.

NEZ001>004-019>022-054>056-191500-
NEBRASKA PANHANDLE

CITY           SKY/WX    TMP DP  RH WIND       PRES   REMARKS
SCOTTSBLUFF    CLOUDY    22  16  78 E6        29.59F WCI  14
ALLIANCE       CLOUDY    13  10  88 CALM      29.58S
CHADRON        CLOUDY    17  13  84 SW8       29.57S WCI   7
KIMBALL        CLOUDY    26  21  80 NW7       29.60S WCI  19
SIDNEY         CLOUDY    21  16  81 NW5       29.59F WCI  15
$$

NEZ057>060-069>072-079>082-191500-
SOUTHWEST NEBRASKA

CITY           SKY/WX    TMP DP  RH WIND       PRES   REMARKS
NORTH PLATTE   FOG       32  31  96 SE6       29.62F VSB 1/4 WCI  26
IMPERIAL       CLOUDY    22  19  89 W3        29.60F
LEXINGTON      FOG       37  36  96 CALM      29.67R VSB 1/2
MCCOOK         FOG       35  35 100 SW5       29.64F VSB 1   WCI  31
OGALLALA       CLOUDY    19  17  92 CALM      29.61S
$$

NEZ005>010-023>029-035>040-094-191500-
NORTH CENTRAL NEBRASKA

CITY           SKY/WX    TMP DP  RH WIND       PRES   REMARKS
VALENTINE      CLOUDY    23  19  85 S6        29.58S WCI  16
AINSWORTH      CLEAR     31  31 100 S9        29.58F WCI  22
BROKEN BOW     FOG       37  37 100 S9        29.65S VSB 1/2 WCI  30
O`NEILL        FOG       37  37  99 S10G16    29.67R VSB 3/4 WCI  30
ORD            FOG       37  35  92 CALM      29.67S VSB 1/2
THEDFORD       FOG       29  29  99 SE3       29.61S VSB 1/2
$$

NEZ041-046>049-061>064-073>077-083>087-191500-
SOUTH CENTRAL NEBRASKA

CITY           SKY/WX    TMP DP  RH WIND       PRES   REMARKS
GRAND ISLAND   FOG       36  36 100 SE6       29.70F VSB 1/2 WCI  31
AURORA         FOG       36  36 100 SE5       29.70F VSB 1/2 WCI  32
HASTINGS       FOG       37  37 100 SE7       29.70F VSB 1/2 WCI  32
HEBRON         CLOUDY    39  38  98 S5        29.73F FOG
HOLDREGE       FOG       37  37  97 SE6       29.67S VSB 1/4 WCI  33
KEARNEY *      CLOUDY    36  34  93 SE6       29.68F VSB 1/4 WCI  31
YORK           FOG       37  37 100 CALM      29.72F VSB<1/4
$$

NEZ011>018-030>034-042>045-191500-
NORTHEAST NEBRASKA

CITY           SKY/WX    TMP DP  RH WIND       PRES   REMARKS
NORFOLK        FOG       35  34  96 S6        29.72F VSB 1   WCI  30
ALBION         FOG       36  35  96 SE3       29.71S VSB 1/2
BLAIR          CLOUDY    35  34  96 S3        29.77S FOG
FREMONT        CLOUDY    34  34 100 CALM      29.77F FOG
TEKAMAH        CLEAR     32  31  96 SE8       29.78F FOG     WCI  25
WAYNE          CLOUDY    36  34  95 S9        29.73F WCI  29
$$

NEZ050>053-065>068-078-088>093-191500-
SOUTHEAST NEBRASKA

CITY           SKY/WX    TMP DP  RH WIND       PRES   REMARKS
LINCOLN        CLOUDY    34  32  92 CALM      29.78S FOG
OMAHA EPPLEY   CLOUDY    34  30  85 CALM      29.79S FOG
BEATRICE       CLOUDY    38  38  99 SE5       29.76S FOG     WCI  34
FALLS CITY     FOG       37  37 100 CALM      29.79S VSB 1/4
NEBRASKA CITY  FOG       37  37 100 S8        29.79R VSB 1/4 WCI  30
PLATTSMOUTH    CLOUDY    38  35  91 SE7       29.78S FOG     WCI  33
$$

NEZ044-045-051>053-067-191500-
OMAHA AREA

CITY           SKY/WX    TMP DP  RH WIND       PRES   REMARKS
OMAHA EPPLEY   CLOUDY    34  30  85 CALM      29.79S FOG
BLAIR          CLOUDY    35  34  96 S3        29.77S FOG
FREMONT        CLOUDY    34  34 100 CALM      29.77F FOG
MILLARD        FOG       33  32  96 CALM      29.79S VSB 1
OFFUTT AFB     MOCLDY    34  34 100 E7        29.78F FOG     WCI  28
PLATTSMOUTH    CLOUDY    38  35  91 SE7       29.78S FOG     WCI  33
WAHOO          CLOUDY    33  32  96 E7        29.77F FOG     WCI  27
$$




USA.gov is the U.S. government's official web portal to all federal, state and local government web resources and services.